This demonstration page uses our WeatherBlox Daily Observations layout. Learn more.

Left ArrowRight Arrow

Hourly Observations for June 29, 2015

Temp ( °F °C ) Dew Point ( °F °C ) Humidity (%) Winds ( mph kmh ) Pressure ( in mb ) Visibility ( mi km ) Precip ( " mm )
12:15 am 00:15 Clear 64 18 57 14 78 78 W 9 15 29.91 1013 10 16 0.00 0.00
12:35 am 00:35 Clear 64 18 57 14 78 78 WNW 8 13 29.91 1013 10 16 0.00 0.00
12:55 am 00:55 Clear 64 18 57 14 78 78 WSW 3 6 29.91 1013 10 16 0.00 0.00
1:15 am 01:15 Clear 64 18 57 14 78 78 W 8 13 29.91 1013 10 16 0.00 0.00
1:35 am 01:35 Clear 63 17 57 14 83 83 WSW 7 11 29.91 1013 10 16 0.00 0.00
1:55 am 01:55 Clear 63 17 55 13 77 77 WSW 8 13 29.91 1013 10 16 0.00 0.00
2:15 am 02:15 Clear 64 18 55 13 73 73 W 9 15 29.91 1013 10 16 0.00 0.00
2:35 am 02:35 Clear 63 17 55 13 77 77 WNW 7 11 29.91 1013 10 16 0.00 0.00
2:55 am 02:55 Clear 63 17 54 12 73 73 WNW 6 9 29.91 1013 10 16 0.00 0.00
3:15 am 03:15 Clear 63 17 54 12 73 73 WNW 9 15 29.91 1013 10 16 0.00 0.00
3:35 am 03:35 Clear 63 17 54 12 73 73 W 7 11 29.91 1013 10 16 0.00 0.00
3:55 am 03:55 Clear 63 17 54 12 73 73 WSW 5 7 29.91 1013 10 16 0.00 0.00
4:15 am 04:15 Clear 59 15 55 13 88 88 W 5 7 29.91 1013 10 16 0.00 0.00
4:35 am 04:35 Clear 61 16 54 12 77 77 S 6 9 29.94 1014 10 16 0.00 0.00
4:55 am 04:55 Clear 59 15 54 12 82 82 SW 8 13 29.94 1014 10 16 0.00 0.00
5:15 am 05:15 Clear 57 14 54 12 88 88 SW 7 11 29.94 1014 10 16 0.00 0.00
5:35 am 05:35 Clear 55 13 54 12 94 94 SW 5 7 29.94 1014 10 16 0.00 0.00
5:55 am 05:55 Sunny 55 13 54 12 94 94 Calm 29.97 1015 10 16 0.00 0.00
6:15 am 06:15 Sunny 55 13 54 12 94 94 Calm 29.97 1015 10 16 0.00 0.00
6:35 am 06:35 Sunny 57 14 55 13 94 94 SW 3 6 29.97 1015 10 16 0.00 0.00
6:55 am 06:55 Sunny 59 15 55 13 88 88 Calm 29.97 1015 10 16 0.00 0.00
7:15 am 07:15 Sunny 61 16 55 13 83 83 SSW 9 15 29.97 1015 10 16 0.00 0.00
7:35 am 07:35 Sunny 63 17 57 14 83 83 SW 8 13 29.97 1015 10 16 0.00 0.00
7:55 am 07:55 Sunny 64 18 57 14 78 78 SW 3 6 29.97 1015 10 16 0.00 0.00
8:15 am 08:15 Sunny 68 20 57 14 69 69 SW 7 11 30.00 1016 10 16 0.00 0.00
8:35 am 08:35 Sunny 68 20 57 14 69 69 SW 5 7 30.00 1016 10 16 0.00 0.00
8:55 am 08:55 Sunny 70 21 59 15 69 69 SSW 3 6 30.00 1016 10 16 0.00 0.00
9:15 am 09:15 Sunny 72 22 59 15 65 65 SSW 5 7 30.00 1016 10 16 0.00 0.00
9:35 am 09:35 Sunny 73 23 59 15 61 61 WSW 8 13 30.00 1016 10 16 0.00 0.00
9:55 am 09:55 Sunny 73 23 59 15 61 61 SW 7 11 30.00 1016 10 16 0.00 0.00
10:15 am 10:15 Sunny 73 23 59 15 61 61 WSW 7 11 30.00 1016 10 16 0.00 0.00
10:35 am 10:35 Sunny 77 25 59 15 54 54 W 7 11 30.00 1016 10 16 0.00 0.00
10:55 am 10:55 Sunny 77 25 59 15 54 54 SW 5 7 30.00 1016 10 16 0.00 0.00
11:15 am 11:15 Sunny 77 25 59 15 54 54 W 6 9 30.00 1016 10 16 0.00 0.00
11:35 am 11:35 Sunny 77 25 59 15 54 54 SW 3 6 30.00 1016 10 16 0.00 0.00
11:55 am 11:55 Sunny 77 25 57 14 51 51 W 8 13 29.97 1015 10 16 0.00 0.00
12:15 pm 12:15 Sunny 79 26 55 13 45 45 SW 7 11 29.97 1015 10 16 0.00 0.00
12:35 pm 12:35 Sunny 79 26 55 13 45 45 W 6 9 30.00 1016 10 16 0.00 0.00
12:55 pm 12:55 Sunny 79 26 54 12 42 42 SW 5 7 29.97 1015 10 16 0.00 0.00
1:15 pm 13:15 Sunny 81 27 55 13 42 42 NW 6 9 29.97 1015 10 16 0.00 0.00
1:35 pm 13:35 Sunny 81 27 55 13 42 42 WSW 5 7 29.97 1015 10 16 0.00 0.00
1:55 pm 13:55 Sunny 81 27 55 13 42 42 W 5 7 29.97 1015 10 16 0.00 0.00
2:15 pm 14:15 Sunny 81 27 55 13 42 42 SSW 8 13 29.97 1015 10 16 0.00 0.00
2:35 pm 14:35 Partly Cloudy 82 28 57 14 42 42 SSW 10 17 29.97 1015 10 16 0.00 0.00
2:55 pm 14:55 Sunny 82 28 57 14 42 42 SSW 8 13 29.97 1015 10 16 0.00 0.00
3:15 pm 15:15 Partly Cloudy 82 28 57 14 42 42 SW 9 15 29.97 1015 10 16 0.00 0.00
3:35 pm 15:35 Partly Cloudy 82 28 55 13 40 40 WSW 9 15 29.97 1015 10 16 0.00 0.00
3:55 pm 15:55 Partly Cloudy 82 28 55 13 40 40 WSW 5 7 29.94 1014 10 16 0.00 0.00
4:15 pm 16:15 Partly Cloudy 82 28 54 12 37 37 S 13 20 29.94 1014 10 16 0.00 0.00
4:35 pm 16:35 Partly Cloudy 82 28 55 13 40 40 SW 8 13 29.94 1014 10 16 0.00 0.00
4:55 pm 16:55 Sunny 82 28 55 13 40 40 S 8 13 29.94 1014 10 16 0.00 0.00
5:15 pm 17:15 Sunny 82 28 54 12 37 37 SSW 9 15 29.94 1014 10 16 0.00 0.00
5:35 pm 17:35 Partly Cloudy 82 28 55 13 40 40 S 13 20 29.94 1014 10 16 0.00 0.00
5:55 pm 17:55 Sunny 82 28 55 13 40 40 SSW 10 17 29.94 1014 10 16 0.00 0.00
6:15 pm 18:15 Sunny 82 28 57 14 42 42 S 13 20 29.94 1014 10 16 0.00 0.00
6:35 pm 18:35 Sunny 82 28 59 15 45 45 SSW 8 13 29.94 1014 10 16 0.00 0.00
6:55 pm 18:55 Sunny 81 27 59 15 48 48 SSW 10 17 29.94 1014 10 16 0.00 0.00
7:15 pm 19:15 Partly Cloudy 79 26 59 15 51 51 SSW 12 19 29.94 1014 10 16 0.00 0.00
7:35 pm 19:35 Partly Cloudy 79 26 61 16 54 54 S 12 19 29.94 1014 10 16 0.00 0.00
7:55 pm 19:55 Partly Cloudy 79 26 61 16 54 54 SSW 13 20 29.94 1014 10 16 0.00 0.00
8:15 pm 20:15 Mostly Cloudy 79 26 61 16 54 54 SSW 13 20 29.94 1014 10 16 0.00 0.00
8:35 pm 20:35 Cloudy 77 25 61 16 57 57 S 13 20 29.94 1014 10 16 0.00 0.00
8:55 pm 20:55 Partly Cloudy 77 25 61 16 57 57 S 10 17 29.94 1014 10 16 0.00 0.00
9:15 pm 21:15 Partly Cloudy 75 24 61 16 61 61 S 10 17 29.94 1014 10 16 0.00 0.00
9:35 pm 21:35 Clear 73 23 61 16 65 65 S 8 13 29.94 1014 10 16 0.00 0.00
9:55 pm 21:55 Clear 73 23 61 16 65 65 S 8 13 29.94 1014 10 16 0.00 0.00
10:15 pm 22:15 Clear 72 22 61 16 69 69 S 5 7 29.94 1014 10 16 0.00 0.00
10:35 pm 22:35 Clear 70 21 61 16 73 73 S 5 7 29.94 1014 10 16 0.00 0.00
10:55 pm 22:55 Clear 72 22 61 16 69 69 S 3 6 29.94 1014 10 16 0.00 0.00
11:15 pm 23:15 Clear 70 21 61 16 73 73 SSW 3 6 29.94 1014 10 16 0.00 0.00
11:35 pm 23:35 Clear 70 21 61 16 73 73 S 8 13 29.94 1014 10 16 0.00 0.00
11:55 pm 23:55 Clear 70 21 61 16 73 73 S 6 9 29.94 1014 10 16 0.00 0.00

Powered by AerisWeather